Weather in Portimão

Portugal     37°08′01″N   8°32′24″W
temp.,
°C
wind,
m/s
gust,
m/s
humid.,
%
clouds,
%
prec.,
mm/h
press.,
hPa
HPBL,
m
5 march, fri
fri500:00+12sse369499 0.7 1014333
03:00+10wsw129632 0.3 101248
06:00+9e119318 0.3 101154
09:00+12e238943 0.0 1011179
12:00+15se457969 2.4 1012704
15:00+15ese458099 3.6 1011672
18:00+13ese378995 6.9 1011371
21:00+10ne389481 0.1 1014214
6 march, sat
sat600:00+10ne389552 0.1 1015203
03:00+10ne379658 0.1 1015166
06:00+9nne379435 0.1 1016188
09:00+12nne368451 0.0 1018242
12:00+18ene346125 0.0 10181105
15:00+18sw127018 1.8 1017804
18:00+14w228833 5.3 101753
21:00+11nnw239156 0.8 101938
7 march, sun
sun700:00+10nnw339228 0.8 101959
03:00+9n34900 0.0 101871
06:00+9nnw33870 0.0 101855
09:00+13nnw24810 0.0 1019163
12:00+18nw23570 0.0 1019801
15:00+18nw33570 0.0 10171255
18:00+14nw35820 0.0 1017250
21:00+10nnw37957 0.0 1018213
8 march, mon
mon800:00+9nnw34965 0.0 1019104
03:00+7n34940 0.0 1018106
06:00+6nnw349250 0.0 1017100
09:00+10nnw358067 0.0 1018494
12:00+15nw355959 0.0 1019978
15:00+15nw47590 0.0 1017846
18:00+11nw410788 0.0 1017604
21:00+7nnw36920 0.0 1019172
9 march, tue
tue900:00+6n23940 0.0 101971
03:00+6nnw33930 0.0 101873
06:00+6n33940 0.0 101876
09:00+10n46720 0.0 1020245
12:00+17n23460 0.0 1021959
15:00+18n23460 0.0 10201536
18:00+14n35680 0.0 1020140
21:00+10n33870 0.0 102363